User: anonymous   Login
Location: Unspecified
(0.0000°N, 0.0000°E)
Time: 20:55:44
(UTC+00:00)
Language:

COSMOS 2468 - Orbit

View from above orbital plane
View from above orbital plane
View from above satellite
View from above satellite

Ground track
Ground track

The orbit data is extracted from the following two-line orbital elements,

1 37154U 10043C   17113.82787022 +.00000028 +00000-0 +12970-3 0  9999
2 37154 082.4647 354.1154 0015563 037.5924 322.6238 12.43631838300598
Epoch (UTC): 23 April 2017 19:52:07
Eccentricity: 0.0015563
inclination: 82.4647°
perigee height: 1479 km
apogee height: 1503 km
right ascension of ascending node: 354.1154°
argument of perigee: 37.5924°
revolutions per day: 12.43631838
mean anomaly at epoch: 322.6238°
orbit number at epoch: 30059

The dashed part of the orbit path shows where the satellite is in the earth's shadow,  

DLR